Location: Newark
(48.0000°N, 67.0000°E)
Time: 09:11:21
(UTC+00:00)

Vanguard 2 - Pass Details

Date: 28 February 2020
Orbit: 552 x 2938 km, 32.9° (Epoch: 07 April)

Event Time Altitude Azimuth Distance (km) Brightness Sun altitude
Exits shadow 20:32:11 10° 107° (ESE) 4,331 11.3 -48.7°
Drops below altitude 10° 20:32:14 10° 107° (ESE) 4,347 11.3 -48.7°
Sets 20:37:19 0° 97° (E) 5,773 12.1 -48.4°
